User: anonymous   Login
Location: Caltech
(34.1382°N, 118.1253°W)
Time: 11:05:48
(UTC-07:00)
Language:

SO-50 - Orbit

View from above orbital plane
View from above orbital plane
View from above satellite
View from above satellite

Ground track
Ground track

The orbit data is extracted from the following two-line orbital elements,

1 27607U 02058C   15090.18546071  .00002208  00000-0  33576-3 0  9993
2 27607 064.5554 076.9461 0077388 303.6580 055.7156 14.74573140659784
Epoch (UTC): 31 March 2015 04:27:03
Eccentricity: 0.0077388
inclination: 64.5554°
perigee height: 592 km
apogee height: 701 km
right ascension of ascending node: 76.9461°
argument of perigee: 303.6580°
revolutions per day: 14.74573140
mean anomaly at epoch: 55.7156°
orbit number at epoch: 65978

The dashed part of the orbit path shows where the satellite is in the earth's shadow,  

DLR